Location: Mentone
(34.5413°N, 85.5351°W)
Time: 18:59:34
(UTC-05:00)

S-56A Canister/Altair - Visible Passes

Search period start: 24 March 2017 00:00
Search period end: 03 April 2017 00:00
Orbit: 639 x 2495 km, 38.9° (Epoch: 23 March)

Date Brightness Start Highest point End Pass type
(mag) Time Alt. Az. Time Alt. Az. Time Alt. Az.
24 Mar 10.9 05:54:29 10° SSW 06:04:30 27° SE 06:12:11 10° E visible
25 Mar 11.0 05:21:45 10° S 05:31:37 25° SE 05:39:26 10° E visible
26 Mar 11.1 04:49:10 10° S 04:58:42 22° SE 05:06:32 10° E visible
27 Mar 11.2 04:16:44 10° S 04:25:46 20° SE 04:33:26 10° E visible
28 Mar 11.3 03:44:32 10° S 03:52:48 18° SE 04:00:05 10° E visible
28 Mar 10.2 05:45:09 10° SW 05:58:15 49° SSE 06:07:43 10° ENE visible
29 Mar 11.4 03:13:00 10° SSE 03:19:50 15° SE 03:26:22 10° ESE visible
29 Mar 10.3 05:12:01 10° SSW 05:25:16 46° SE 05:35:10 10° ENE visible
30 Mar 11.5 02:42:50 11° SSE 02:46:51 13° SE 02:52:05 10° ESE visible
30 Mar 10.4 04:40:19 13° SSW 04:52:12 42° SE 05:02:31 10° ENE visible
31 Mar 11.5 02:12:33 10° SE 02:13:54 11° SE 02:16:16 10° ESE visible
31 Mar 10.5 04:10:02 20° SSW 04:19:08 39° SE 04:29:46 10° E visible
01 Apr 10.7 03:39:37 25° S 03:46:03 35° SE 03:56:52 10° E visible
01 Apr 9.8 05:37:27 10° SW 05:51:56 75° SSE 06:02:23 10° ENE visible
02 Apr 10.7 03:09:05 28° SSE 03:12:57 32° SE 03:23:50 10° E visible
02 Apr 9.9 05:06:32 17° SW 05:18:48 70° SSE 05:29:52 10° ENE visible
